weather.gov     
National Weather Service

Other Surface Observations
NWS Homepage
This page is being discontinued on March 12, 2014.
The same data is available at this site. Please update your bookmarks.
Thank you, and we apologize for the inconvenience.
Please send an email to SR-SRH.Webmaster@noaa.gov with any concerns.


Current Version
Previous Version:    01  02  03  04  05  06  07  08  09  10  11  12  13  14  15  16  17  18  19  20  21  22  23  24  25  26  27  28  29  30  
   31  32  33  34  35  36  37  38  39  40  41  42  43  44  45  46  47  48  49  50  51  52  53  54  55  56  57  58  59  60  
[Printable]
287
SXUS52 KCHS 302010
OSOCHS

MARINE OBSERVATIONS
NATIONAL WEATHER SERVICE CHARLESTON SC
400 PM EDT TUE SEP 30 2014

...DOWNTOWN CHARLESTON AND HARBOR...

CITY           SKY/WX    TMP DP  RH WIND       PRES   REMARKS
WATERFRONT PRK NOT AVBL
FORT JOHNSON   NOT AVBL

...LAKE MOULTRIE...

CITY           SKY/WX    TMP DP  RH WIND       PRES   REMARKS
PINOPOLIS        N/A     79  64  61 W5        29.79F

...LAKE AND SUPPLEMENTAL COASTAL OBSERVATIONS...

STATION/POSITION TIME  TEMP    WIND        PRES    WAVE   SWELL
                       AIR SEA DIR/SP/G            HT/PER HT/PER/DIR
                 (UTC) (F)     (DEG/KT/KT) (MB)    (FT/S) (FT/S/D)
FORT PULASKI     2000   76      70/  4/  6 1011.0S
SAPELO ISLAND    NOT AVBL
UPR LAKE MARION  NOT AVBL
WINYAH BAY       1900   75      70/  8     1010.0S
LAKE MURRAY      1900   79     200/  5/  7 1010.8F
ACE BASIN NERRS  1900   82      20/  2     1011.0F


...C-MAN AND BUOY OBSERVATIONS...

STATION/POSITION TIME  TEMP    WIND        PRES    WAVE   SWELL
                       AIR SEA DIR/SP/G            HT/PER HT/PER/DIR
                 (UTC) (F)     (DEG/KT/KT) (MB)    (FT/S) (FT/S/D)
BUOY 41004       2000   75 81   20/ 14/ 17 1009.5R   4/ 6   2/14
BUOY 41008       2000   74 79   20/ 12/ 16 1010.5F   4/ 6   2/ 70/ 8
FOLLY BEACH CMAN 1900   76      80/  5/  6 1011.2F
CAPERS NS BUOY   1900   76      60/  8/ 10   N/A
FRIPP NS BUOY    NOT AVBL
5E ST. MARYS GA  2000      79                N/A     4/ 6
FRYING PAN BUOY  NOT AVBL
BUOY 41025       2000   74     350/ 16/ 17 1009.3F   4/ 7   2/ 60/ 7
CAPE LOOKOUT NC  1900   74      40/ 13/ 15 1009.9F
BUOY 41002       1914   76 81  130/ 10/ 12 1007.6F   3/ 7   2/ 70/ 7
BUOY 41010       2000   82 84  280/ 16/ 17 1008.7R   4/ 5   2/100/15
BUOY 41012       NOT AVBL
ST AUGUSTINE FL  2000   76     360/ 21/ 23 1010.5F


$$




U.S. Dept. of Commerce
NOAA National Weather Service
1325 East West Highway
Silver Spring, MD 20910
E-mail: w-nws.webmaster@noaa.gov
Page last modified: May 16, 2007
NATIONAL WEATHER SERVICE: for Safety, for Work, for Fun - FOR LIFE